TimeEDT,TemperatureF,Dew PointF,Humidity,Sea Level PressureIn,VisibilityMPH,Wind Direction,Wind SpeedMPH,Gust SpeedMPH,PrecipitationIn,Events,Conditions,WindDirDegrees,DateUTC
12:05 AM,71.6,66.2,83,29.93,10.0,South,10.4,-,N/A,,Mostly Cloudy,180,2013-10-07 04:05:00
12:53 AM,71.1,66.0,84,29.89,10.0,South,8.1,-,N/A,,Overcast,180,2013-10-07 04:53:00
1:53 AM,71.1,66.9,87,29.88,10.0,South,8.1,-,N/A,,Overcast,170,2013-10-07 05:53:00
2:53 AM,71.1,66.9,87,29.87,10.0,SSE,11.5,-,N/A,,Overcast,160,2013-10-07 06:53:00
3:16 AM,71.6,66.2,83,29.88,10.0,South,10.4,-,N/A,,Mostly Cloudy,170,2013-10-07 07:16:00
3:30 AM,71.6,66.2,83,29.88,10.0,South,6.9,-,N/A,,Overcast,170,2013-10-07 07:30:00
3:53 AM,71.1,66.9,87,29.84,10.0,South,6.9,-,N/A,,Overcast,170,2013-10-07 07:53:00
4:53 AM,71.1,66.9,87,29.82,10.0,South,4.6,-,N/A,,Overcast,170,2013-10-07 08:53:00
5:53 AM,71.1,66.9,87,29.81,10.0,South,8.1,-,N/A,,Overcast,180,2013-10-07 09:53:00
6:53 AM,71.1,66.9,87,29.80,10.0,South,12.7,-,N/A,,Overcast,170,2013-10-07 10:53:00
7:53 AM,71.1,66.9,87,29.79,10.0,South,11.5,-,N/A,,Overcast,190,2013-10-07 11:53:00
8:53 AM,71.1,69.1,93,29.80,9.0,South,5.8,-,0.00,Rain,Light Rain,190,2013-10-07 12:53:00
9:07 AM,71.6,69.8,94,29.81,2.5,South,6.9,-,0.02,Rain,Light Rain,180,2013-10-07 13:07:00
9:24 AM,66.2,64.4,94,29.80,1.5,NNW,3.5,-,0.07,Rain,Light Rain,330,2013-10-07 13:24:00
9:50 AM,66.2,64.4,94,29.82,3.0,Variable,3.5,-,0.19,Rain,Light Rain,0,2013-10-07 13:50:00
9:53 AM,66.9,64.9,93,29.79,6.0,Variable,6.9,-,0.19,Rain,Light Rain,0,2013-10-07 13:53:00
10:02 AM,66.2,64.4,94,29.83,1.5,West,8.1,-,0.12,Rain,Light Rain,280,2013-10-07 14:02:00
10:04 AM,66.2,64.4,94,29.83,0.8,Variable,6.9,-,0.21,Rain,Heavy Rain,0,2013-10-07 14:04:00
10:18 AM,66.2,64.4,94,29.82,0.2,SSW,10.4,17.3,0.80,Fog-Rain,Heavy Rain,200,2013-10-07 14:18:00
10:25 AM,66.2,64.4,94,29.80,2.5,SSW,10.4,-,0.82,Rain,Light Rain,200,2013-10-07 14:25:00
10:31 AM,66.2,64.4,94,29.82,5.0,SSW,10.4,-,0.82,Rain,Light Rain,200,2013-10-07 14:31:00
10:53 AM,66.0,64.0,93,29.80,3.0,Calm,Calm,-,0.86,Rain,Rain,0,2013-10-07 14:53:00
11:06 AM,66.2,64.4,94,29.81,8.0,South,3.5,-,0.01,Rain,Light Rain,180,2013-10-07 15:06:00
11:15 AM,66.2,64.4,94,29.81,9.0,SE,4.6,-,0.01,Rain,Light Rain,140,2013-10-07 15:15:00
11:48 AM,66.2,64.4,94,29.82,6.0,South,8.1,-,0.05,Rain,Rain,190,2013-10-07 15:48:00
11:53 AM,66.9,64.9,93,29.80,6.0,South,8.1,-,0.06,Rain,Rain,190,2013-10-07 15:53:00
12:08 PM,66.2,66.2,100,29.83,10.0,South,11.5,-,0.01,Rain,Light Rain,190,2013-10-07 16:08:00
12:51 PM,66.2,64.4,94,29.83,5.0,Variable,3.5,-,0.02,Rain,Light Rain,0,2013-10-07 16:51:00
12:53 PM,66.9,64.0,90,29.81,10.0,Variable,4.6,-,0.02,,Overcast,0,2013-10-07 16:53:00
1:02 PM,66.2,64.4,94,29.84,10.0,Variable,3.5,-,N/A,,Mostly Cloudy,0,2013-10-07 17:02:00
1:53 PM,66.0,57.9,75,29.84,10.0,Variable,5.8,-,N/A,,Mostly Cloudy,0,2013-10-07 17:53:00
2:53 PM,69.1,57.0,65,29.84,10.0,Variable,5.8,-,N/A,,Clear,0,2013-10-07 18:53:00
3:53 PM,70.0,54.0,57,29.86,10.0,Variable,3.5,-,N/A,,Clear,0,2013-10-07 19:53:00
4:53 PM,68.0,57.9,70,29.87,10.0,Calm,Calm,-,N/A,,Clear,0,2013-10-07 20:53:00
5:53 PM,68.0,57.9,70,29.89,10.0,Calm,Calm,-,N/A,,Clear,0,2013-10-07 21:53:00
6:53 PM,64.0,57.9,80,29.92,10.0,Calm,Calm,-,N/A,,Scattered Clouds,0,2013-10-07 22:53:00
7:53 PM,63.0,46.9,56,29.96,10.0,North,5.8,-,N/A,,Mostly Cloudy,360,2013-10-07 23:53:00
8:53 PM,61.0,46.9,60,29.99,10.0,North,5.8,-,N/A,,Mostly Cloudy,360,2013-10-08 00:53:00
9:53 PM,60.1,44.1,55,30.02,10.0,NNW,4.6,-,N/A,,Mostly Cloudy,340,2013-10-08 01:53:00
10:53 PM,57.9,44.1,60,30.04,10.0,NNW,5.8,-,N/A,,Overcast,330,2013-10-08 02:53:00
11:53 PM,55.9,43.0,62,30.06,10.0,Calm,Calm,-,N/A,,Clear,0,2013-10-08 03:53:00